Regional Weather Roundup
Issued by NWS Sioux Falls, SD

Home | Current Version | Previous Version | Graphics & Text | Print | Product List | Glossary Off
Versions: 1 2 3 4 5 6 7 8 9 10 11 12 13 14 15 16 17 18 19 20 21 22 23 24 25 26 27 28 29 30 31 32 33 34 35 36 37 38 39 40 41 42 43 44 45 46 47 48 49 50

000
ASUS43 KFSD 201110
RWRFSD

WEATHER ROUNDUP FOR SE SOUTH DAKOTA/SW MINNESOTA/NW IOWA
NATIONAL WEATHER SERVICE SIOUX FALLS SD
600 AM CDT SUN MAY 20 2018

NOTE: "FAIR" INDICATES FEW OR NO CLOUDS BELOW 12,000 FEET WITH NO
SIGNIFICANT WEATHER AND OR OBSTRUCTIONS TO VISIBILITY.


SDZ038>040-050-052>070-201200-
SOUTHEAST SOUTH DAKOTA

CITY           SKY/WX    TMP DP  RH WIND       PRES   REMARKS
BROOKINGS      CLEAR     46  39  76 NE10      30.18S
CHAMBERLAIN    CLEAR     48  38  70 NE7       30.19S
HURON          CLEAR     39  34  82 NE3       30.21R
MADISON        PTSUNNY   48  41  76 NE15G24   30.16F
MITCHELL       PTCLDY    48  41  76 N8        30.19R
SIOUX FALLS    CLOUDY    49  41  74 E14       30.16R
WINNER         FAIR      41  34  76 N6        30.19S
YANKTON        CLOUDY    51  46  83 NE10      30.15R
$$

MNZ071-072-080-081-089-090-097-098-201200-
SOUTHWEST MINNESOTA

CITY           SKY/WX    TMP DP  RH WIND       PRES   REMARKS
FAIRMONT       CLOUDY    49  40  71 NE12      30.16R
JACKSON        CLOUDY    48  39  71 NE18      30.15R
LUVERNE        CLOUDY    46  41  81 NE8       30.17R
MARSHALL       NOT AVBL
MONTEVIDEO     CLOUDY    43  37  81 CALM      30.22R
PIPESTONE      LGT RAIN  46  39  76 E15G24    30.15S
REDWOOD FALLS  CLOUDY    47  38  71 NE7       30.19R
TRACY          CLOUDY    49  40  69 NE13      30.19R
WINDOM         MOCLDY    48  28  46 NE10G17   30.16R
WORTHINGTON    CLOUDY    47  42  83 NE12      30.17R
$$

IAZ001>003-012>014-020>022-031-032-NEZ013-014-SDZ071-201200-
NORTHWEST IOWA

CITY           SKY/WX    TMP DP  RH WIND       PRES   REMARKS
CHEROKEE       CLOUDY    50  48  92 NE8       30.14R
DENISON        CLOUDY    52  50  93 N9        30.11R
ESTHERVILLE    CLOUDY    48  43  82 NE14      30.13R
ORANGE CITY    CLOUDY    52  46  82 NE7       30.13R
SHELDON        CLOUDY    50  48  93 NE14      30.12S
SIOUX CITY     CLOUDY    53  48  83 NE9       30.11R
SPENCER        CLOUDY    51  45  79 NE8       30.14R
STORM LAKE     CLOUDY    50  46  87 NE13      30.12R
$$

ABBREVIATIONS USED IN REMARKS
   TC - TEMPERATURE IN CELSIUS
  WCI - WIND CHILL INDEX
   HX - HEAT INDEX
  VSB - VISIBILITY





USA.gov is the U.S. government's official web portal to all federal, state and local government web resources and services.